When you browse on this site, cookies collect data to enhance your experience and personalize the content and advertising you see.
Visit our Privacy Policy to learn more. By continuing to use the site, you agree to this use of cookies and data.
  • în România
  • Lista ţărilor
  • Pe 7 zile
  • Temperatura apei
  • Hartă satelitară
  • Meteo pe hartă
  • Widget-uri
  • user-avatar
    Intrare

    Meteo pe oră la Kakanj

    Astăzi, 19 Aprilie, Vineri

    Timp Temperatura Precipitaţii Vânt Presiune Umiditate
    00:00 +6°C° 0 mm 0 m/s 730 mmHg 92%
    01:00 +6°C° 0 mm 0 m/s 730 mmHg 91%
    02:00 +6°C° 0 mm 0 m/s 730 mmHg 92%
    03:00 +6°C° 0 mm 0 m/s 730 mmHg 92%
    04:00 +5°C° 0 mm 0 m/s 730 mmHg 92%
    05:00 +7°C° 0 mm 0 m/s 731 mmHg 88%
    06:00 +8°C° 0 mm 0 m/s 731 mmHg 84%
    07:00 +10°C° 0 mm 0 m/s 731 mmHg 80%
    08:00 +12°C° 0 mm 1 m/s 731 mmHg 75%
    09:00 +14°C° 0 mm 1 m/s 731 mmHg 69%
    10:00 +15°C° 0 mm 2 m/s 731 mmHg 64%
    11:00 +16°C° 0.1 mm 2 m/s 731 mmHg 60%
    12:00 +16°C° 0.1 mm 2 m/s 731 mmHg 57%
    13:00 +17°C° 0.1 mm 2 m/s 731 mmHg 53%
    14:00 +17°C° 0 mm 2 m/s 731 mmHg 54%
    15:00 +17°C° 0 mm 3 m/s 730 mmHg 55%
    16:00 +17°C° 0 mm 3 m/s 730 mmHg 56%
    17:00 +15°C° 0 mm 2 m/s 730 mmHg 65%
    18:00 +13°C° 0 mm 1 m/s 730 mmHg 74%
    19:00 +11°C° 0 mm 1 m/s 730 mmHg 83%
    20:00 +11°C° 0 mm 1 m/s 730 mmHg 84%
    21:00 +10°C° 0 mm 1 m/s 730 mmHg 85%
    22:00 +9°C° 0 mm 0 m/s 730 mmHg 86%
    23:00 +9°C° 0 mm 0 m/s 730 mmHg 86%

    Mâine, 20 Aprilie, Sâmbătă

    Timp Temperatura Precipitaţii Vânt Presiune Umiditate
    00:00 +8°C° 0 mm 0 m/s 730 mmHg 85%
    01:00 +9°C° 0 mm 1 m/s 730 mmHg 85%
    02:00 +9°C° 0 mm 1 m/s 730 mmHg 87%
    03:00 +8°C° 0 mm 1 m/s 730 mmHg 89%
    04:00 +8°C° 0 mm 1 m/s 730 mmHg 91%
    05:00 +9°C° 0 mm 1 m/s 730 mmHg 87%
    06:00 +10°C° 0 mm 1 m/s 730 mmHg 82%
    07:00 +11°C° 0 mm 1 m/s 730 mmHg 78%
    08:00 +12°C° 0 mm 2 m/s 730 mmHg 66%
    09:00 +14°C° 0 mm 2 m/s 730 mmHg 54%
    10:00 +14°C° 0 mm 3 m/s 730 mmHg 43%
    11:00 +16°C° 0 mm 3 m/s 730 mmHg 42%
    12:00 +16°C° 0 mm 3 m/s 730 mmHg 41%
    13:00 +17°C° 0 mm 3 m/s 730 mmHg 40%
    14:00 +16°C° 0 mm 3 m/s 730 mmHg 43%
    15:00 +16°C° 0 mm 3 m/s 730 mmHg 45%
    16:00 +16°C° 0 mm 3 m/s 729 mmHg 48%
    17:00 +14°C° 0 mm 2 m/s 729 mmHg 56%
    18:00 +12°C° 0 mm 2 m/s 729 mmHg 64%
    19:00 +10°C° 0 mm 1 m/s 729 mmHg 72%
    20:00 +9°C° 0 mm 1 m/s 729 mmHg 74%
    21:00 +8°C° 0 mm 0 m/s 729 mmHg 77%
    22:00 +7°C° 0 mm 0 m/s 730 mmHg 79%
    23:00 +6°C° 0 mm 0 m/s 729 mmHg 80%

    Poimâine, 21 Aprilie, Duminică

    Timp Temperatura Precipitaţii Vânt Presiune Umiditate
    00:00 +6°C° 0 mm 0 m/s 729 mmHg 80%
    01:00 +6°C° 0 mm 0 m/s 729 mmHg 81%
    02:00 +6°C° 0 mm 1 m/s 729 mmHg 82%
    03:00 +6°C° 0 mm 1 m/s 728 mmHg 83%
    04:00 +6°C° 0 mm 1 m/s 728 mmHg 84%
    05:00 +7°C° 0 mm 1 m/s 728 mmHg 78%
    06:00 +9°C° 0 mm 1 m/s 728 mmHg 71%
    07:00 +11°C° 0 mm 1 m/s 728 mmHg 65%
    08:00 +13°C° 0 mm 1 m/s 728 mmHg 55%
    09:00 +16°C° 0 mm 1 m/s 728 mmHg 46%
    10:00 +20°C° 0 mm 1 m/s 728 mmHg 36%
    11:00 +19°C° 0 mm 0 m/s 728 mmHg 33%
    12:00 +20°C° 0 mm 0 m/s 728 mmHg 31%
    13:00 +21°C° 0 mm 0 m/s 727 mmHg 28%
    14:00 +20°C° 0 mm 0 m/s 727 mmHg 28%
    15:00 +22°C° 0 mm 1 m/s 726 mmHg 29%
    16:00 +21°C° 0 mm 1 m/s 726 mmHg 29%
    17:00 +18°C° 0 mm 1 m/s 726 mmHg 39%
    18:00 +15°C° 0 mm 1 m/s 725 mmHg 49%
    19:00 +11°C° 0 mm 0 m/s 725 mmHg 59%
    20:00 +12°C° 0 mm 1 m/s 725 mmHg 64%
    21:00 +11°C° 0 mm 1 m/s 725 mmHg 69%
    22:00 +10°C° 0 mm 1 m/s 725 mmHg 74%
    23:00 +10°C° 0 mm 1 m/s 725 mmHg 79%

    22 Aprilie, Luni

    Timp Temperatura Precipitaţii Vânt Presiune Umiditate
    00:00 +10°C° 0 mm 1 m/s 725 mmHg 83%
    01:00 +8°C° 0 mm 2 m/s 724 mmHg 87%
    02:00 +8°C° 0 mm 2 m/s 724 mmHg 89%
    03:00 +8°C° 0 mm 2 m/s 724 mmHg 91%
    04:00 +7°C° 0 mm 2 m/s 723 mmHg 94%
    05:00 +9°C° 0 mm 2 m/s 723 mmHg 88%
    06:00 +10°C° 0 mm 2 m/s 723 mmHg 82%
    07:00 +12°C° 0 mm 2 m/s 723 mmHg 76%
    08:00 +14°C° 0 mm 2 m/s 723 mmHg 64%
    09:00 +17°C° 0 mm 2 m/s 723 mmHg 52%
    10:00 +19°C° 0 mm 2 m/s 723 mmHg 40%
    11:00 +19°C° 0 mm 2 m/s 722 mmHg 39%
    12:00 +20°C° 0 mm 3 m/s 722 mmHg 39%
    13:00 +21°C° 0 mm 3 m/s 722 mmHg 38%
    14:00 +20°C° 0 mm 3 m/s 721 mmHg 44%
    15:00 +19°C° 0 mm 3 m/s 721 mmHg 50%
    16:00 +18°C° 0 mm 3 m/s 720 mmHg 56%
    17:00 +16°C° 0 mm 3 m/s 720 mmHg 61%
    18:00 +15°C° 0 mm 2 m/s 719 mmHg 66%
    19:00 +13°C° 0 mm 2 m/s 719 mmHg 70%
    20:00 +13°C° 0 mm 2 m/s 719 mmHg 72%
    21:00 +13°C° 0 mm 2 m/s 719 mmHg 74%
    22:00 +12°C° 0 mm 2 m/s 719 mmHg 76%
    23:00 +12°C° 0.7 mm 2 m/s 719 mmHg 81%

    23 Aprilie, Marţi

    Timp Temperatura Precipitaţii Vânt Presiune Umiditate
    00:00 +12°C° 0.7 mm 2 m/s 719 mmHg 87%
    01:00 +10°C° 0.7 mm 2 m/s 718 mmHg 92%
    02:00 +10°C° 0 mm 2 m/s 718 mmHg 92%
    03:00 +10°C° 0 mm 2 m/s 718 mmHg 92%
    04:00 +10°C° 0 mm 2 m/s 718 mmHg 92%
    05:00 +12°C° 0 mm 2 m/s 718 mmHg 89%
    06:00 +12°C° 0 mm 3 m/s 718 mmHg 86%
    07:00 +13°C° 0 mm 3 m/s 718 mmHg 83%
    08:00 +13°C° 0 mm 3 m/s 718 mmHg 80%
    09:00 +14°C° 0 mm 3 m/s 718 mmHg 77%
    10:00 +16°C° 0 mm 3 m/s 718 mmHg 74%
    11:00 +17°C° 0 mm 4 m/s 719 mmHg 69%
    12:00 +17°C° 0 mm 5 m/s 719 mmHg 65%
    13:00 +17°C° 0 mm 5 m/s 719 mmHg 61%
    14:00 +17°C° 0 mm 5 m/s 719 mmHg 63%
    15:00 +18°C° 0 mm 4 m/s 719 mmHg 65%
    16:00 +17°C° 0 mm 4 m/s 719 mmHg 67%
    17:00 +16°C° 0 mm 3 m/s 719 mmHg 72%
    18:00 +14°C° 0 mm 3 m/s 719 mmHg 78%
    19:00 +14°C° 0 mm 2 m/s 720 mmHg 83%
    20:00 +14°C° 0.1 mm 2 m/s 720 mmHg 83%
    21:00 +14°C° 0.1 mm 2 m/s 721 mmHg 84%
    22:00 +14°C° 0.1 mm 2 m/s 722 mmHg 84%
    23:00 +12°C° 0 mm 3 m/s 722 mmHg 85%

    24 Aprilie, Miercuri

    Timp Temperatura Precipitaţii Vânt Presiune Umiditate
    00:00 +12°C° 0 mm 3 m/s 722 mmHg 87%
    01:00 +12°C° 0 mm 3 m/s 722 mmHg 88%
    02:00 +12°C° 0 mm 2 m/s 722 mmHg 90%
    03:00 +12°C° 0 mm 2 m/s 722 mmHg 92%
    04:00 +10°C° 0 mm 2 m/s 722 mmHg 95%
    05:00 +13°C° 0 mm 2 m/s 723 mmHg 90%
    06:00 +14°C° 0 mm 2 m/s 723 mmHg 86%
    07:00 +15°C° 0 mm 2 m/s 723 mmHg 82%
    08:00 +17°C° 0 mm 2 m/s 724 mmHg 73%
    09:00 +19°C° 0 mm 2 m/s 724 mmHg 65%
    10:00 +21°C° 0 mm 2 m/s 724 mmHg 56%
    11:00 +23°C° 0 mm 2 m/s 724 mmHg 52%
    12:00 +24°C° 0 mm 2 m/s 724 mmHg 48%
    13:00 +25°C° 0 mm 2 m/s 724 mmHg 44%
    14:00 +25°C° 0 mm 2 m/s 724 mmHg 45%
    15:00 +24°C° 0 mm 2 m/s 724 mmHg 47%
    16:00 +24°C° 0 mm 2 m/s 724 mmHg 48%
    17:00 +21°C° 0 mm 2 m/s 724 mmHg 57%
    18:00 +20°C° 0 mm 1 m/s 724 mmHg 66%
    19:00 +16°C° 0 mm 1 m/s 724 mmHg 76%
    20:00 +16°C° 0 mm 1 m/s 724 mmHg 79%
    21:00 +15°C° 0 mm 1 m/s 724 mmHg 82%
    22:00 +14°C° 0 mm 1 m/s 724 mmHg 85%
    23:00 +13°C° 0 mm 1 m/s 724 mmHg 86%
    Arată mai mult